Terminal Aerodrome Forecast
Issued by NWS Glasgow, MT

Home | Current Version | Previous Version | Text Only | Print | Product List | Glossary On
Versions: 1 2 3 4 5 6 7 8 9 10 11 12 13
000
FTUS45 KGGW 041700
TAFGGW
TAF
KGGW 041720Z 0418/0518 16020G30KT P6SM SCT150
     FM050900 11015KT P6SM SKC
     FM051400 13015G25KT P6SM SCT200=

USA.gov is the U.S. government's official web portal to all federal, state and local government web resources and services.